Location: Unspecified
(0.0000°N, 0.0000°E)
Time: 15:24:37
(UTC+00:00)

USA 410 - Visible Passes

Search period start: 15 June 2025 00:00
Search period end: 25 June 2025 00:00
Orbit: 572 x 582 km, 70.0° (Epoch: 12 June)

Date Brightness Start Highest point End Pass type
(mag) Time Alt. Az. Time Alt. Az. Time Alt. Az.
15 Jun ? 18:59:19 10° SSE 19:03:01 30° ESE 19:06:41 10° NE visible
16 Jun ? 19:02:47 10° S 19:06:56 55° ESE 19:11:02 10° NNE visible
17 Jun ? 19:06:37 10° SSW 19:10:50 79° WNW 19:15:01 10° NNE visible
18 Jun ? 19:10:46 10° SW 19:14:45 41° WNW 19:18:42 10° N visible
19 Jun ? 19:15:17 10° SW 19:18:39 23° WNW 19:22:00 10° NNW visible
20 Jun ? 19:20:34 10° WSW 19:22:34 13° WNW 19:24:34 10° NW visible
